Вернуться в каталог

EXPRESS MD1

АктивенСвязьGEO
NORAD 33596·PAYLOAD·🇷🇺 Russia

Запущен Feb 11, 2009 с Baikonur Cosmodrome

Loading…

TLE

СвежийSource: Space-Track

Эпоха: Sep 14, 2026, 06:45 UTC

1 33596U 09007B   26257.28157766 -.00000245  00000-0  00000-0 0  9998
2 33596  10.3779  51.7973 0008512 354.2509   6.1401  0.99113466 63955

Отслеживайте EXPRESS MD1 в реальном времени с AllMySat

Download on the App Store